Location: Peebles
(55.6412°N, 3.1714°W)
Time: 14:04:59
(UTC+01:00)

Cosmos 494 Rocket - Pass Details

Date: 26 September 2021
Orbit: 741 x 771 km, 74.1° (Epoch: 17 October)

Event Time Altitude Azimuth Distance (km) Brightness Sun altitude
Rises 22:02:53 0° 332° (NNW) 3,260 8.3 -24.8°
Reaches altitude 10° 22:05:20 10° 337° (NNW) 2,329 7.3 -25.1°
Enters shadow 22:10:31 56° 55° (NE) 922 4.2 -25.7°
